Terminal Aerodrome Forecast
Issued by NWS Knoxville/Tri Cities, TN

Home | Current Version | Previous Version | Text Only | Print | Product List | Glossary On
Versions: 1 2 3 4 5 6 7 8 9 10 11 12 13 14 15 16 17 18 19 20 21 22 23 24 25 26 27 28 29 30 31 32 33 34 35 36 37 38 39 40 41 42 43 44 45 46 47 48 49
000
FTUS44 KMRX 282330
TAFTRI
TAF
KTRI 282330Z 2900/2924 28009KT P6SM BKN090
     FM290100 29005KT P6SM BKN080
     FM290800 00000KT 5SM BR OVC060
     FM291400 27003KT P6SM SCT020 BKN050
     FM291800 29006KT P6SM SCT250=

USA.gov is the U.S. government's official web portal to all federal, state and local government web resources and services.